FW2422 Weather Reports


Display with metric or nautical units.
time (UTC)temp
F
wind
direction
speed
MPH
gust
MPH
rain 1hr
in
rain 24hr
in
rain mn
in
humidity
%
barometer
mb
20260502184600 77 349 0.0 5.0 0.00 0.00 0.00 32 1021.2
20260502183059 75 147 1.0 4.0 0.00 0.00 0.00 30 1021.5
20260502181556 76 6 0.0 3.0 0.00 0.00 0.00 31 1021.7
20260502151556 71 340 0.0 2.0 0.00 0.00 0.00 45 1022.4
20260502150105 69 18 0.0 1.0 0.00 0.00 0.00 50 1022.3
20260502123011 53 264 0.0 0.0 0.00 0.00 0.00 90 1021.0
20260502121510 0 0.0 0.0 0.00 0.00 0.00 1020.6
20260502114554 0 0.0 0.0 0.00 0.00 0.00 1020.0
20260502113050 0 0.0 0.0 0.00 0.00 0.00 1019.9
20260502111550 0 0.0 0.0 0.00 0.00 0.00 1019.7
20260502110041 0 0.0 0.0 0.00 0.00 0.00 1019.6
20260502104536 0 0.0 0.0 0.00 0.00 0.00 1019.8
20260502103035 0 0.0 0.0 0.00 0.00 0.00 1019.5
20260502101553 47 228 0.0 0.0 0.00 0.00 0.00 93 1019.5
20260502091524 50 229 0.0 0.0 0.00 0.00 0.00 91 1019.3
20260502071509 50 95 0.0 0.0 0.00 0.00 0.00 90 1019.2
20260502070008 51 95 0.0 0.0 0.00 0.00 0.00 89 1019.2
20260502064515 51 95 0.0 0.0 0.00 0.00 0.00 89 1019.4
20260502063008 51 95 0.0 0.0 0.00 0.00 0.00 88 1019.4
20260502061502 52 95 0.0 0.0 0.00 0.00 0.00 88 1019.4
20260502060101 52 95 0.0 0.0 0.00 0.00 0.00 89 1019.1
20260502060003 52 95 0.0 0.0 0.00 0.00 0.00 89 1019.2
20260502050050 53 95 0.0 0.0 0.00 0.00 0.00 83 1019.2
20260502044548 54 95 0.0 0.0 0.00 0.00 0.00 82 1019.1
20260502043047 54 95 0.0 0.0 0.00 0.00 0.00 82 1019.1
20260502041552 54 95 0.0 0.0 0.00 0.00 0.00 81 1018.9
20260502040042 55 95 0.0 0.0 0.00 0.00 0.00 78 1018.9
20260502034539 56 95 0.0 0.0 0.00 0.00 0.00 76 1019.1
20260502033040 57 95 0.0 0.0 0.00 0.00 0.00 73 1019.0
20260502031528 58 95 0.0 0.0 0.00 0.00 0.00 72 1018.7
20260502030028 58 95 0.0 0.0 0.00 0.00 0.00 76 1018.7
20260502014600 60 82 0.0 1.0 0.00 0.00 0.00 72 1017.6
20260502013101 60 98 0.0 0.0 0.00 0.00 0.00 71 1017.3
20260502011559 60 100 0.0 1.0 0.00 0.00 0.00 71 1017.0
20260502010059 60 113 0.0 0.0 0.00 0.00 0.00 71 1016.8
20260502000101 61 102 0.0 0.0 0.00 0.00 0.00 69 1016.3
20260501234554 61 105 0.0 2.0 0.00 0.00 0.00 69 1015.8
20260501233054 61 86 0.0 0.0 0.00 0.00 0.00 68 1015.9
20260501231622 61 94 0.0 1.0 0.00 0.00 0.00 69 1015.7
20260501230100 61 91 0.0 4.0 0.00 0.00 0.00 68 1015.5
20260501224601 62 25 0.0 3.0 0.00 0.00 0.00 68 1015.5
20260501223052 62 67 0.0 1.0 0.00 0.00 0.00 64 1015.4
20260501221605 62 74 0.0 2.0 0.00 0.00 0.00 61 1015.6
20260501220050 62 61 0.0 6.0 0.00 0.00 0.00 60 1015.4
20260501214549 62 295 0.0 2.0 0.00 0.00 0.00 59 1015.4
20260501213052 62 79 0.0 6.0 0.00 0.00 0.00 58 1015.5
20260501211603 63 47 0.0 8.0 0.00 0.00 0.00 57 1015.5
20260501210050 63 38 1.0 10.0 0.00 0.00 0.00 57 1015.4
20260501204537 63 7 2.0 9.0 0.00 0.00 0.00 52 1015.7
20260501203136 63 85 0.0 9.0 0.00 0.00 0.00 54 1016.0
20260501194528 63 58 0.0 6.0 0.00 0.00 0.00 55 1015.6
20260501193040 63 49 0.0 6.0 0.00 0.00 0.00 55 1015.5
20260501191526 63 68 3.0 8.0 0.00 0.00 0.00 56 1015.6
20260501190030 63 75 2.0 9.0 0.00 0.00 0.00 57 1015.7